Regional Weather Roundup
Issued by NWS

Home | Current Version | Previous Version | Text Only | Print | Product List | Glossary On
Versions: 1 2 3 4 5 6 7 8 9 10 11 12 13 14 15 16 17 18 19 20 21 22 23 24 25 26 27 28 29 30 31 32 33 34 35 36 37 38 39 40 41 42 43 44 45 46 47 48 49 50
000
ASUS43 KTOP 280659
RWRKS

WEATHER ROUNDUP FOR KANSAS
NATIONAL WEATHER SERVICE GOODLAND KS
200 AM CDT MON JUL 28 2014

NOTE:  "FAIR" INDICATES FEW OR NO CLOUDS BELOW 12,000 FEET WITH NO
SIGNIFICANT WEATHER AND/OR OBSTRUCTIONS TO VISIBILITY.

KSZ001>006-013>018-027>032-041>047-280800-
NORTHWEST KANSAS

CITY           SKY/WX    TMP DP  RH WIND       PRES   REMARKS
GOODLAND       CLOUDY    66  51  58 SE6       30.32R
HAYS           PTCLDY    66  52  59 CALM      30.24S
HILL CITY      PTCLDY    64  55  72 CALM      30.26R
RUSSELL        PTCLDY    68  54  60 E3        30.22R
$$

KSZ061>065-074>080-084>089-280800-
SOUTHWEST KANSAS

CITY           SKY/WX    TMP DP  RH WIND       PRES   REMARKS
DODGE CITY     MOCLDY    68  56  65 E5        30.25F
ELKHART          N/A     68  59  73 SE6         N/A
GARDEN CITY    MOCLDY    69  57  65 CALM      30.28R
GREAT BEND     CLEAR     68  57  68 S3        30.22R
LIBERAL        MOCLDY    72  54  53 CALM      30.28S
PRATT          CLOUDY    70  52  52 NE5       30.23S
$$

KSZ066>073-081>083-090>101-280800-
SOUTHEAST KANSAS

CITY           SKY/WX    TMP DP  RH WIND       PRES   REMARKS
CHANUTE        CLEAR     67  57  70 N5        30.15S
COFFEYVILLE    HAZE      68  60  75 CALM      30.13R VSB 3/4
HUTCHINSON     CLEAR     71  54  54 NE8       30.19S
MEDICINE LODGE   N/A     72  56  57 CALM      30.19S
NEWTON         CLEAR     70  52  52 NE7       30.22S
PARSONS        CLEAR     69  58  67 N5        30.15R
WICHITA INTL   CLEAR     73  55  53 NE7       30.18R
WICHITA JABRA  CLEAR     67  57  70 NE7       30.17S
WINFIELD       CLEAR     69  58  67 NE5       30.17S
$$

KSZ007>012-019>026-033>040-048>060-102>105-280800-
NORTHEAST KANSAS

CITY           SKY/WX    TMP DP  RH WIND       PRES   REMARKS
CONCORDIA      CLEAR     65  59  81 N5        30.22R
EMPORIA        CLEAR     66  57  72 CALM      30.17S
LAWRENCE       CLEAR     63  58  83 NW5       30.15S
MANHATTAN      CLEAR     66  57  72 N3        30.18R
OLATHE IND     CLEAR     62  57  83 N8        30.15F
OLATHE EXE     CLEAR     69  57  65 N6        30.14S
SALINA         CLEAR     72  56  57 N5        30.19S
TOPEKA BILLARD CLEAR     67  59  75 N5        30.17R
TOPEKA FORBES  CLEAR     64  57  78 N3        30.17R
$$


USA.gov is the U.S. government's official web portal to all federal, state and local government web resources and services.